#datetime,building,power
2022-03-06T00:00:00,mfh,15.38
2022-03-06T00:01:00,mfh,15.43
2022-03-06T00:02:00,mfh,15.41
2022-03-06T00:03:00,mfh,15.57
2022-03-06T00:04:00,mfh,14.71
2022-03-06T00:05:00,mfh,14.71
2022-03-06T00:06:00,mfh,14.68
2022-03-06T00:07:00,mfh,15.32
2022-03-06T00:08:00,mfh,15.27
2022-03-06T00:09:00,mfh,15.25
2022-03-06T00:10:00,mfh,15.28
2022-03-06T00:11:00,mfh,14.48
2022-03-06T00:12:00,mfh,14.79
2022-03-06T00:13:00,mfh,14.49
2022-03-06T00:14:00,mfh,14.48
2022-03-06T00:15:00,mfh,15.12
2022-03-06T00:16:00,mfh,15.54
2022-03-06T00:17:00,mfh,15.13
2022-03-06T00:18:00,mfh,15.69
2022-03-06T00:19:00,mfh,15.62
2022-03-06T00:20:00,mfh,14.86
2022-03-06T00:21:00,mfh,14.87
2022-03-06T00:22:00,mfh,14.87
2022-03-06T00:23:00,mfh,16.49
2022-03-06T00:24:00,mfh,15.28
2022-03-06T00:25:00,mfh,15.28
2022-03-06T00:26:00,mfh,15.31
2022-03-06T00:27:00,mfh,15.28
2022-03-06T00:28:00,mfh,14.53
2022-03-06T00:29:00,mfh,14.52
2022-03-06T00:30:00,mfh,14.52
2022-03-06T00:31:00,mfh,14.52
2022-03-06T00:32:00,mfh,15.20
2022-03-06T00:33:00,mfh,15.25
2022-03-06T00:34:00,mfh,15.15
2022-03-06T00:35:00,mfh,15.10
2022-03-06T00:36:00,mfh,14.46
2022-03-06T00:37:00,mfh,14.57
2022-03-06T00:38:00,mfh,14.61
2022-03-06T00:39:00,mfh,14.54
2022-03-06T00:40:00,mfh,15.17
2022-03-06T00:41:00,mfh,15.49
2022-03-06T00:42:00,mfh,15.44
2022-03-06T00:43:00,mfh,15.48
2022-03-06T00:44:00,mfh,14.87
2022-03-06T00:45:00,mfh,14.86
2022-03-06T00:46:00,mfh,14.76
2022-03-06T00:47:00,mfh,14.68
2022-03-06T00:48:00,mfh,15.09
2022-03-06T00:49:00,mfh,15.05
2022-03-06T00:50:00,mfh,17.00
2022-03-06T00:51:00,mfh,17.21
2022-03-06T00:52:00,mfh,17.25
2022-03-06T00:53:00,mfh,17.26
2022-03-06T00:54:00,mfh,17.83
2022-03-06T00:55:00,mfh,17.39
2022-03-06T00:56:00,mfh,17.35
2022-03-06T00:57:00,mfh,17.32
2022-03-06T00:58:00,mfh,17.36
2022-03-06T00:59:00,mfh,17.58
2022-03-06T01:00:00,mfh,17.19
2022-03-06T01:01:00,mfh,16.87
2022-03-06T01:02:00,mfh,16.83
2022-03-06T01:03:00,mfh,17.16
2022-03-06T01:04:00,mfh,16.71
2022-03-06T01:05:00,mfh,17.38
2022-03-06T01:06:00,mfh,17.37
2022-03-06T01:07:00,mfh,17.93
2022-03-06T01:08:00,mfh,17.46
2022-03-06T01:09:00,mfh,16.62
2022-03-06T01:10:00,mfh,14.80
2022-03-06T01:11:00,mfh,14.52
2022-03-06T01:12:00,mfh,14.45
2022-03-06T01:13:00,mfh,15.04
2022-03-06T01:14:00,mfh,15.05
2022-03-06T01:15:00,mfh,15.02
2022-03-06T01:16:00,mfh,15.04
2022-03-06T01:17:00,mfh,15.02
2022-03-06T01:18:00,mfh,14.37
2022-03-06T01:19:00,mfh,14.38
2022-03-06T01:20:00,mfh,14.45
2022-03-06T01:21:00,mfh,15.41
2022-03-06T01:22:00,mfh,15.43
2022-03-06T01:23:00,mfh,15.47
2022-03-06T01:24:00,mfh,15.42
2022-03-06T01:25:00,mfh,15.42
2022-03-06T01:26:00,mfh,14.87
2022-03-06T01:27:00,mfh,14.77
2022-03-06T01:28:00,mfh,14.75
2022-03-06T01:29:00,mfh,14.67
2022-03-06T01:30:00,mfh,15.37
2022-03-06T01:31:00,mfh,15.39
2022-03-06T01:32:00,mfh,15.37
2022-03-06T01:33:00,mfh,15.44
2022-03-06T01:34:00,mfh,15.40
2022-03-06T01:35:00,mfh,15.12
2022-03-06T01:36:00,mfh,14.71
2022-03-06T01:37:00,mfh,14.73
2022-03-06T01:38:00,mfh,15.66
2022-03-06T01:39:00,mfh,15.35
2022-03-06T01:40:00,mfh,15.36
2022-03-06T01:41:00,mfh,15.46
2022-03-06T01:42:00,mfh,15.71
2022-03-06T01:43:00,mfh,14.96
2022-03-06T01:44:00,mfh,14.95
2022-03-06T01:45:00,mfh,15.02
2022-03-06T01:46:00,mfh,15.00
2022-03-06T01:47:00,mfh,15.64
2022-03-06T01:48:00,mfh,15.62
2022-03-06T01:49:00,mfh,15.71
2022-03-06T01:50:00,mfh,15.97
2022-03-06T01:51:00,mfh,15.22
2022-03-06T01:52:00,mfh,14.77
2022-03-06T01:53:00,mfh,14.76
2022-03-06T01:54:00,mfh,14.84
2022-03-06T01:55:00,mfh,15.44
2022-03-06T01:56:00,mfh,15.50
2022-03-06T01:57:00,mfh,15.58
2022-03-06T01:58:00,mfh,15.71
2022-03-06T01:59:00,mfh,15.39
2022-03-06T02:00:00,mfh,14.64
2022-03-06T02:01:00,mfh,14.55
2022-03-06T02:02:00,mfh,14.87
2022-03-06T02:03:00,mfh,14.81
2022-03-06T02:04:00,mfh,15.33
2022-03-06T02:05:00,mfh,15.37
2022-03-06T02:06:00,mfh,15.35
2022-03-06T02:07:00,mfh,15.36
2022-03-06T02:08:00,mfh,16.68
2022-03-06T02:09:00,mfh,16.45
2022-03-06T02:10:00,mfh,16.38
2022-03-06T02:11:00,mfh,15.50
2022-03-06T02:12:00,mfh,16.05
2022-03-06T02:13:00,mfh,16.01
2022-03-06T02:14:00,mfh,15.91
2022-03-06T02:15:00,mfh,15.97
2022-03-06T02:16:00,mfh,15.33
2022-03-06T02:17:00,mfh,15.25
2022-03-06T02:18:00,mfh,15.18
2022-03-06T02:19:00,mfh,15.20
2022-03-06T02:20:00,mfh,15.81
2022-03-06T02:21:00,mfh,15.94
2022-03-06T02:22:00,mfh,17.26
2022-03-06T02:23:00,mfh,16.39
2022-03-06T02:24:00,mfh,15.71
2022-03-06T02:25:00,mfh,15.63
2022-03-06T02:26:00,mfh,15.62
2022-03-06T02:27:00,mfh,15.75
2022-03-06T02:28:00,mfh,14.37
2022-03-06T02:29:00,mfh,14.45
2022-03-06T02:30:00,mfh,14.24
2022-03-06T02:31:00,mfh,14.09
2022-03-06T02:32:00,mfh,14.60
2022-03-06T02:33:00,mfh,13.38
2022-03-06T02:34:00,mfh,13.50
2022-03-06T02:35:00,mfh,13.44
2022-03-06T02:36:00,mfh,13.69
2022-03-06T02:37:00,mfh,13.97
2022-03-06T02:38:00,mfh,14.09
2022-03-06T02:39:00,mfh,14.11
2022-03-06T02:40:00,mfh,14.15
2022-03-06T02:41:00,mfh,13.41
2022-03-06T02:42:00,mfh,13.41
2022-03-06T02:43:00,mfh,13.71
2022-03-06T02:44:00,mfh,13.70
2022-03-06T02:45:00,mfh,14.56
2022-03-06T02:46:00,mfh,14.29
2022-03-06T02:47:00,mfh,14.24
2022-03-06T02:48:00,mfh,14.68
2022-03-06T02:49:00,mfh,13.47
2022-03-06T02:50:00,mfh,13.29
2022-03-06T02:51:00,mfh,13.28
2022-03-06T02:52:00,mfh,13.19
2022-03-06T02:53:00,mfh,13.82
2022-03-06T02:54:00,mfh,13.84
2022-03-06T02:55:00,mfh,13.88
2022-03-06T02:56:00,mfh,14.58
2022-03-06T02:57:00,mfh,13.19
2022-03-06T02:58:00,mfh,13.28
2022-03-06T02:59:00,mfh,13.33
2022-03-06T03:00:00,mfh,13.33
2022-03-06T03:01:00,mfh,13.88
2022-03-06T03:02:00,mfh,13.89
2022-03-06T03:03:00,mfh,14.05
2022-03-06T03:04:00,mfh,14.14
2022-03-06T03:05:00,mfh,14.19
2022-03-06T03:06:00,mfh,13.57
2022-03-06T03:07:00,mfh,14.26
2022-03-06T03:08:00,mfh,15.21
2022-03-06T03:09:00,mfh,14.43
2022-03-06T03:10:00,mfh,15.06
2022-03-06T03:11:00,mfh,14.87
2022-03-06T03:12:00,mfh,14.10
2022-03-06T03:13:00,mfh,14.05
2022-03-06T03:14:00,mfh,14.03
2022-03-06T03:15:00,mfh,13.75
2022-03-06T03:16:00,mfh,13.84
2022-03-06T03:17:00,mfh,13.74
2022-03-06T03:18:00,mfh,14.43
2022-03-06T03:19:00,mfh,14.37
2022-03-06T03:20:00,mfh,14.40
2022-03-06T03:21:00,mfh,14.42
2022-03-06T03:22:00,mfh,14.46
2022-03-06T03:23:00,mfh,13.79
2022-03-06T03:24:00,mfh,13.77
2022-03-06T03:25:00,mfh,13.82
2022-03-06T03:26:00,mfh,15.73
2022-03-06T03:27:00,mfh,17.07
2022-03-06T03:28:00,mfh,16.38
2022-03-06T03:29:00,mfh,16.46
2022-03-06T03:30:00,mfh,16.35
2022-03-06T03:31:00,mfh,15.48
2022-03-06T03:32:00,mfh,15.47
2022-03-06T03:33:00,mfh,15.50
2022-03-06T03:34:00,mfh,15.48
2022-03-06T03:35:00,mfh,16.17
2022-03-06T03:36:00,mfh,17.28
2022-03-06T03:37:00,mfh,16.20
2022-03-06T03:38:00,mfh,16.19
2022-03-06T03:39:00,mfh,16.14
2022-03-06T03:40:00,mfh,15.46
2022-03-06T03:41:00,mfh,15.45
2022-03-06T03:42:00,mfh,15.43
2022-03-06T03:43:00,mfh,15.44
2022-03-06T03:44:00,mfh,16.26
2022-03-06T03:45:00,mfh,16.34
2022-03-06T03:46:00,mfh,16.30
2022-03-06T03:47:00,mfh,14.49
2022-03-06T03:48:00,mfh,13.85
2022-03-06T03:49:00,mfh,13.75
2022-03-06T03:50:00,mfh,13.75
2022-03-06T03:51:00,mfh,13.68
2022-03-06T03:52:00,mfh,15.18
2022-03-06T03:53:00,mfh,14.15
2022-03-06T03:54:00,mfh,14.14
2022-03-06T03:55:00,mfh,14.60
2022-03-06T03:56:00,mfh,13.55
2022-03-06T03:57:00,mfh,14.20
2022-03-06T03:58:00,mfh,14.14
2022-03-06T03:59:00,mfh,14.17
2022-03-06T04:00:00,mfh,14.81
2022-03-06T04:01:00,mfh,14.82
2022-03-06T04:02:00,mfh,14.91
2022-03-06T04:03:00,mfh,14.88
2022-03-06T04:04:00,mfh,14.87
2022-03-06T04:05:00,mfh,15.21
2022-03-06T04:06:00,mfh,14.45
2022-03-06T04:07:00,mfh,14.42
2022-03-06T04:08:00,mfh,14.48
2022-03-06T04:09:00,mfh,15.54
2022-03-06T04:10:00,mfh,15.07
2022-03-06T04:11:00,mfh,15.25
2022-03-06T04:12:00,mfh,15.09
2022-03-06T04:13:00,mfh,14.38
2022-03-06T04:14:00,mfh,14.43
2022-03-06T04:15:00,mfh,14.32
2022-03-06T04:16:00,mfh,14.26
2022-03-06T04:17:00,mfh,14.91
2022-03-06T04:18:00,mfh,14.92
2022-03-06T04:19:00,mfh,14.95
2022-03-06T04:20:00,mfh,14.93
2022-03-06T04:21:00,mfh,14.35
2022-03-06T04:22:00,mfh,14.36
2022-03-06T04:23:00,mfh,14.81
2022-03-06T04:24:00,mfh,14.38
2022-03-06T04:25:00,mfh,15.38
2022-03-06T04:26:00,mfh,15.36
2022-03-06T04:27:00,mfh,15.35
2022-03-06T04:28:00,mfh,15.40
2022-03-06T04:29:00,mfh,14.70
2022-03-06T04:30:00,mfh,15.13
2022-03-06T04:31:00,mfh,14.79
2022-03-06T04:32:00,mfh,14.78
2022-03-06T04:33:00,mfh,14.61
2022-03-06T04:34:00,mfh,15.14
2022-03-06T04:35:00,mfh,15.20
2022-03-06T04:36:00,mfh,15.31
2022-03-06T04:37:00,mfh,15.35
2022-03-06T04:38:00,mfh,14.76
2022-03-06T04:39:00,mfh,14.92
2022-03-06T04:40:00,mfh,14.70
2022-03-06T04:41:00,mfh,14.63
2022-03-06T04:42:00,mfh,15.25
2022-03-06T04:43:00,mfh,15.27
2022-03-06T04:44:00,mfh,15.29
2022-03-06T04:45:00,mfh,25.18
2022-03-06T04:46:00,mfh,16.83
2022-03-06T04:47:00,mfh,16.76
2022-03-06T04:48:00,mfh,16.82
2022-03-06T04:49:00,mfh,16.87
2022-03-06T04:50:00,mfh,17.46
2022-03-06T04:51:00,mfh,17.83
2022-03-06T04:52:00,mfh,18.35
2022-03-06T04:53:00,mfh,17.48
2022-03-06T04:54:00,mfh,17.38
2022-03-06T04:55:00,mfh,16.85
2022-03-06T04:56:00,mfh,16.82
2022-03-06T04:57:00,mfh,17.35
2022-03-06T04:58:00,mfh,16.67
2022-03-06T04:59:00,mfh,17.30
2022-03-06T05:00:00,mfh,17.37
2022-03-06T05:01:00,mfh,38.44
2022-03-06T05:02:00,mfh,38.43
2022-03-06T05:03:00,mfh,38.55
2022-03-06T05:04:00,mfh,38.07
2022-03-06T05:05:00,mfh,35.73
2022-03-06T05:06:00,mfh,36.32
2022-03-06T05:07:00,mfh,35.80
2022-03-06T05:08:00,mfh,35.55
2022-03-06T05:09:00,mfh,35.18
2022-03-06T05:10:00,mfh,34.99
2022-03-06T05:11:00,mfh,35.10
2022-03-06T05:12:00,mfh,34.86
2022-03-06T05:13:00,mfh,35.26
2022-03-06T05:14:00,mfh,35.42
2022-03-06T05:15:00,mfh,35.36
2022-03-06T05:16:00,mfh,35.75
2022-03-06T05:17:00,mfh,36.13
2022-03-06T05:18:00,mfh,36.16
2022-03-06T05:19:00,mfh,35.68
2022-03-06T05:20:00,mfh,35.99
2022-03-06T05:21:00,mfh,35.28
2022-03-06T05:22:00,mfh,35.40
2022-03-06T05:23:00,mfh,35.50
2022-03-06T05:24:00,mfh,35.41
2022-03-06T05:25:00,mfh,36.03
2022-03-06T05:26:00,mfh,36.89
2022-03-06T05:27:00,mfh,37.01
2022-03-06T05:28:00,mfh,36.98
2022-03-06T05:29:00,mfh,36.16
2022-03-06T05:30:00,mfh,36.22
2022-03-06T05:31:00,mfh,35.82
2022-03-06T05:32:00,mfh,35.55
2022-03-06T05:33:00,mfh,36.18
2022-03-06T05:34:00,mfh,35.99
2022-03-06T05:35:00,mfh,35.97
2022-03-06T05:36:00,mfh,35.95
2022-03-06T05:37:00,mfh,36.99
2022-03-06T05:38:00,mfh,35.44
2022-03-06T05:39:00,mfh,35.29
2022-03-06T05:40:00,mfh,35.40
2022-03-06T05:41:00,mfh,35.25
2022-03-06T05:42:00,mfh,35.96
2022-03-06T05:43:00,mfh,35.95
2022-03-06T05:44:00,mfh,36.52
2022-03-06T05:45:00,mfh,36.00
2022-03-06T05:46:00,mfh,35.18
2022-03-06T05:47:00,mfh,35.21
2022-03-06T05:48:00,mfh,35.54
2022-03-06T05:49:00,mfh,35.54
2022-03-06T05:50:00,mfh,36.25
2022-03-06T05:51:00,mfh,36.96
2022-03-06T05:52:00,mfh,37.00
2022-03-06T05:53:00,mfh,37.25
2022-03-06T05:54:00,mfh,35.77
2022-03-06T05:55:00,mfh,35.64
2022-03-06T05:56:00,mfh,36.11
2022-03-06T05:57:00,mfh,35.73
2022-03-06T05:58:00,mfh,36.47
2022-03-06T05:59:00,mfh,36.42
2022-03-06T06:00:00,mfh,36.54
2022-03-06T06:01:00,mfh,36.35
2022-03-06T06:02:00,mfh,35.65
2022-03-06T06:03:00,mfh,35.54
2022-03-06T06:04:00,mfh,35.48
2022-03-06T06:05:00,mfh,35.31
2022-03-06T06:06:00,mfh,35.91
2022-03-06T06:07:00,mfh,35.97
2022-03-06T06:08:00,mfh,36.71
2022-03-06T06:09:00,mfh,35.88
2022-03-06T06:10:00,mfh,35.80
2022-03-06T06:11:00,mfh,35.79
2022-03-06T06:12:00,mfh,37.10
2022-03-06T06:13:00,mfh,37.57
2022-03-06T06:14:00,mfh,37.67
2022-03-06T06:15:00,mfh,37.70
2022-03-06T06:16:00,mfh,37.32
2022-03-06T06:17:00,mfh,37.05
2022-03-06T06:18:00,mfh,37.73
2022-03-06T06:19:00,mfh,37.09
2022-03-06T06:20:00,mfh,37.35
2022-03-06T06:21:00,mfh,37.18
2022-03-06T06:22:00,mfh,37.14
2022-03-06T06:23:00,mfh,37.27
2022-03-06T06:24:00,mfh,37.20
2022-03-06T06:25:00,mfh,37.23
2022-03-06T06:26:00,mfh,37.66
2022-03-06T06:27:00,mfh,37.47
2022-03-06T06:28:00,mfh,36.73
2022-03-06T06:29:00,mfh,37.24
2022-03-06T06:30:00,mfh,36.53
2022-03-06T06:31:00,mfh,34.80
2022-03-06T06:32:00,mfh,35.26
2022-03-06T06:33:00,mfh,35.92
2022-03-06T06:34:00,mfh,35.51
2022-03-06T06:35:00,mfh,35.55
2022-03-06T06:36:00,mfh,35.13
2022-03-06T06:37:00,mfh,34.70
2022-03-06T06:38:00,mfh,35.22
2022-03-06T06:39:00,mfh,34.33
2022-03-06T06:40:00,mfh,34.94
2022-03-06T06:41:00,mfh,34.89
2022-03-06T06:42:00,mfh,34.97
2022-03-06T06:43:00,mfh,34.96
2022-03-06T06:44:00,mfh,34.73
2022-03-06T06:45:00,mfh,34.09
2022-03-06T06:46:00,mfh,34.04
2022-03-06T06:47:00,mfh,33.83
2022-03-06T06:48:00,mfh,33.90
2022-03-06T06:49:00,mfh,34.45
2022-03-06T06:50:00,mfh,34.98
2022-03-06T06:51:00,mfh,34.84
2022-03-06T06:52:00,mfh,34.85
2022-03-06T06:53:00,mfh,34.37
2022-03-06T06:54:00,mfh,34.05
2022-03-06T06:55:00,mfh,34.14
2022-03-06T06:56:00,mfh,34.25
2022-03-06T06:57:00,mfh,34.66
2022-03-06T06:58:00,mfh,34.54
2022-03-06T06:59:00,mfh,35.12
2022-03-06T07:00:00,mfh,34.58
2022-03-06T07:01:00,mfh,34.62
2022-03-06T07:02:00,mfh,33.93
2022-03-06T07:03:00,mfh,33.87
2022-03-06T07:04:00,mfh,33.82
2022-03-06T07:05:00,mfh,34.62
2022-03-06T07:06:00,mfh,34.14
2022-03-06T07:07:00,mfh,34.12
2022-03-06T07:08:00,mfh,34.22
2022-03-06T07:09:00,mfh,34.26
2022-03-06T07:10:00,mfh,33.53
2022-03-06T07:11:00,mfh,34.61
2022-03-06T07:12:00,mfh,33.75
2022-03-06T07:13:00,mfh,33.98
2022-03-06T07:14:00,mfh,34.22
2022-03-06T07:15:00,mfh,34.32
2022-03-06T07:16:00,mfh,34.19
2022-03-06T07:17:00,mfh,34.20
2022-03-06T07:18:00,mfh,34.19
2022-03-06T07:19:00,mfh,33.68
2022-03-06T07:20:00,mfh,33.72
2022-03-06T07:21:00,mfh,33.32
2022-03-06T07:22:00,mfh,33.15
2022-03-06T07:23:00,mfh,33.92
2022-03-06T07:24:00,mfh,34.56
2022-03-06T07:25:00,mfh,34.25
2022-03-06T07:26:00,mfh,33.72
2022-03-06T07:27:00,mfh,51.84
2022-03-06T07:28:00,mfh,54.61
2022-03-06T07:29:00,mfh,56.19
2022-03-06T07:30:00,mfh,57.17
2022-03-06T07:31:00,mfh,57.62
2022-03-06T07:32:00,mfh,57.56
2022-03-06T07:33:00,mfh,57.58
2022-03-06T07:34:00,mfh,57.59
2022-03-06T07:35:00,mfh,57.37
2022-03-06T07:36:00,mfh,56.61
2022-03-06T07:37:00,mfh,56.50
2022-03-06T07:38:00,mfh,56.24
2022-03-06T07:39:00,mfh,58.58
2022-03-06T07:40:00,mfh,58.57
2022-03-06T07:41:00,mfh,58.54
2022-03-06T07:42:00,mfh,58.54
2022-03-06T07:43:00,mfh,58.57
2022-03-06T07:44:00,mfh,51.26
2022-03-06T07:45:00,mfh,43.12
2022-03-06T07:46:00,mfh,43.02
2022-03-06T07:47:00,mfh,44.25
2022-03-06T07:48:00,mfh,43.71
2022-03-06T07:49:00,mfh,43.50
2022-03-06T07:50:00,mfh,43.82
2022-03-06T07:51:00,mfh,43.40
2022-03-06T07:52:00,mfh,43.34
2022-03-06T07:53:00,mfh,43.04
2022-03-06T07:54:00,mfh,42.81
2022-03-06T07:55:00,mfh,35.76
2022-03-06T07:56:00,mfh,50.89
2022-03-06T07:57:00,mfh,58.31
2022-03-06T07:58:00,mfh,57.59
2022-03-06T07:59:00,mfh,57.37
2022-03-06T08:00:00,mfh,57.05
2022-03-06T08:01:00,mfh,56.08
2022-03-06T08:02:00,mfh,56.19
2022-03-06T08:03:00,mfh,56.05
2022-03-06T08:04:00,mfh,56.47
2022-03-06T08:05:00,mfh,56.40
2022-03-06T08:06:00,mfh,56.32
2022-03-06T08:07:00,mfh,56.29
2022-03-06T08:08:00,mfh,56.24
2022-03-06T08:09:00,mfh,55.51
2022-03-06T08:10:00,mfh,56.82
2022-03-06T08:11:00,mfh,55.26
2022-03-06T08:12:00,mfh,55.07
2022-03-06T08:13:00,mfh,49.55
2022-03-06T08:14:00,mfh,41.79
2022-03-06T08:15:00,mfh,33.80
2022-03-06T08:16:00,mfh,34.02
2022-03-06T08:17:00,mfh,33.73
2022-03-06T08:18:00,mfh,33.10
2022-03-06T08:19:00,mfh,33.41
2022-03-06T08:20:00,mfh,33.03
2022-03-06T08:21:00,mfh,34.07
2022-03-06T08:22:00,mfh,33.72
2022-03-06T08:23:00,mfh,33.26
2022-03-06T08:24:00,mfh,33.40
2022-03-06T08:25:00,mfh,33.45
2022-03-06T08:26:00,mfh,32.81
2022-03-06T08:27:00,mfh,32.73
2022-03-06T08:28:00,mfh,32.84
2022-03-06T08:29:00,mfh,32.85
2022-03-06T08:30:00,mfh,33.63
2022-03-06T08:31:00,mfh,33.57
2022-03-06T08:32:00,mfh,33.45
2022-03-06T08:33:00,mfh,33.87
2022-03-06T08:34:00,mfh,33.19
2022-03-06T08:35:00,mfh,34.56
2022-03-06T08:36:00,mfh,34.73
2022-03-06T08:37:00,mfh,34.80
2022-03-06T08:38:00,mfh,35.42
2022-03-06T08:39:00,mfh,35.32
2022-03-06T08:40:00,mfh,35.40
2022-03-06T08:41:00,mfh,33.97
2022-03-06T08:42:00,mfh,33.34
2022-03-06T08:43:00,mfh,32.79
2022-03-06T08:44:00,mfh,33.16
2022-03-06T08:45:00,mfh,32.56
2022-03-06T08:46:00,mfh,33.14
2022-03-06T08:47:00,mfh,33.76
2022-03-06T08:48:00,mfh,33.24
2022-03-06T08:49:00,mfh,33.43
2022-03-06T08:50:00,mfh,34.14
2022-03-06T08:51:00,mfh,33.49
2022-03-06T08:52:00,mfh,33.40
2022-03-06T08:53:00,mfh,33.22
2022-03-06T08:54:00,mfh,33.40
2022-03-06T08:55:00,mfh,34.02
2022-03-06T08:56:00,mfh,34.19
2022-03-06T08:57:00,mfh,34.47
2022-03-06T08:58:00,mfh,34.29
2022-03-06T08:59:00,mfh,34.16
2022-03-06T09:00:00,mfh,42.55
2022-03-06T09:01:00,mfh,56.22
2022-03-06T09:02:00,mfh,58.01
2022-03-06T09:03:00,mfh,59.20
2022-03-06T09:04:00,mfh,60.03
2022-03-06T09:05:00,mfh,60.47
2022-03-06T09:06:00,mfh,60.43
2022-03-06T09:07:00,mfh,60.47
2022-03-06T09:08:00,mfh,60.46
2022-03-06T09:09:00,mfh,59.81
2022-03-06T09:10:00,mfh,59.84
2022-03-06T09:11:00,mfh,60.04
2022-03-06T09:12:00,mfh,60.86
2022-03-06T09:13:00,mfh,62.04
2022-03-06T09:14:00,mfh,63.31
2022-03-06T09:15:00,mfh,63.57
2022-03-06T09:16:00,mfh,63.85
2022-03-06T09:17:00,mfh,63.77
2022-03-06T09:18:00,mfh,79.64
2022-03-06T09:19:00,mfh,80.76
2022-03-06T09:20:00,mfh,80.82
2022-03-06T09:21:00,mfh,81.23
2022-03-06T09:22:00,mfh,80.56
2022-03-06T09:23:00,mfh,81.22
2022-03-06T09:24:00,mfh,80.95
2022-03-06T09:25:00,mfh,80.07
2022-03-06T09:26:00,mfh,80.26
2022-03-06T09:27:00,mfh,80.42
2022-03-06T09:28:00,mfh,80.20
2022-03-06T09:29:00,mfh,80.52
2022-03-06T09:30:00,mfh,76.09
2022-03-06T09:31:00,mfh,76.03
2022-03-06T09:32:00,mfh,75.78
2022-03-06T09:33:00,mfh,75.92
2022-03-06T09:34:00,mfh,68.12
2022-03-06T09:35:00,mfh,62.33
2022-03-06T09:36:00,mfh,61.74
2022-03-06T09:37:00,mfh,61.82
2022-03-06T09:38:00,mfh,62.72
2022-03-06T09:39:00,mfh,62.88
2022-03-06T09:40:00,mfh,62.45
2022-03-06T09:41:00,mfh,64.00
2022-03-06T09:42:00,mfh,63.02
2022-03-06T09:43:00,mfh,63.14
2022-03-06T09:44:00,mfh,62.53
2022-03-06T09:45:00,mfh,70.53
2022-03-06T09:46:00,mfh,70.96
2022-03-06T09:47:00,mfh,71.57
2022-03-06T09:48:00,mfh,71.20
2022-03-06T09:49:00,mfh,71.39
2022-03-06T09:50:00,mfh,71.52
2022-03-06T09:51:00,mfh,70.96
2022-03-06T09:52:00,mfh,70.66
2022-03-06T09:53:00,mfh,70.44
2022-03-06T09:54:00,mfh,70.39
2022-03-06T09:55:00,mfh,71.80
2022-03-06T09:56:00,mfh,71.64
2022-03-06T09:57:00,mfh,85.34
2022-03-06T09:58:00,mfh,86.03
2022-03-06T09:59:00,mfh,86.10
2022-03-06T10:00:00,mfh,86.05
2022-03-06T10:01:00,mfh,85.93
2022-03-06T10:02:00,mfh,85.80
2022-03-06T10:03:00,mfh,86.28
2022-03-06T10:04:00,mfh,86.02
2022-03-06T10:05:00,mfh,85.99
2022-03-06T10:06:00,mfh,86.16
2022-03-06T10:07:00,mfh,85.75
2022-03-06T10:08:00,mfh,85.17
2022-03-06T10:09:00,mfh,85.01
2022-03-06T10:10:00,mfh,84.94
2022-03-06T10:11:00,mfh,88.06
2022-03-06T10:12:00,mfh,88.28
2022-03-06T10:13:00,mfh,88.05
2022-03-06T10:14:00,mfh,87.99
2022-03-06T10:15:00,mfh,87.73
2022-03-06T10:16:00,mfh,87.52
2022-03-06T10:17:00,mfh,87.77
2022-03-06T10:18:00,mfh,87.65
2022-03-06T10:19:00,mfh,87.66
2022-03-06T10:20:00,mfh,87.90
2022-03-06T10:21:00,mfh,87.75
2022-03-06T10:22:00,mfh,87.77
2022-03-06T10:23:00,mfh,87.65
2022-03-06T10:24:00,mfh,87.66
2022-03-06T10:25:00,mfh,87.42
2022-03-06T10:26:00,mfh,87.55
2022-03-06T10:27:00,mfh,87.50
2022-03-06T10:28:00,mfh,87.51
2022-03-06T10:29:00,mfh,87.56
2022-03-06T10:30:00,mfh,87.59
2022-03-06T10:31:00,mfh,87.21
2022-03-06T10:32:00,mfh,87.24
2022-03-06T10:33:00,mfh,87.25
2022-03-06T10:34:00,mfh,87.16
2022-03-06T10:35:00,mfh,86.99
2022-03-06T10:36:00,mfh,86.97
2022-03-06T10:37:00,mfh,87.21
2022-03-06T10:38:00,mfh,87.47
2022-03-06T10:39:00,mfh,86.99
2022-03-06T10:40:00,mfh,86.98
2022-03-06T10:41:00,mfh,86.90
2022-03-06T10:42:00,mfh,86.80
2022-03-06T10:43:00,mfh,86.91
2022-03-06T10:44:00,mfh,86.93
2022-03-06T10:45:00,mfh,86.88
2022-03-06T10:46:00,mfh,87.22
2022-03-06T10:47:00,mfh,86.99
2022-03-06T10:48:00,mfh,87.06
2022-03-06T10:49:00,mfh,87.07
2022-03-06T10:50:00,mfh,86.86
2022-03-06T10:51:00,mfh,87.04
2022-03-06T10:52:00,mfh,87.70
2022-03-06T10:53:00,mfh,87.72
2022-03-06T10:54:00,mfh,87.49
2022-03-06T10:55:00,mfh,87.70
2022-03-06T10:56:00,mfh,87.79
2022-03-06T10:57:00,mfh,87.98
2022-03-06T10:58:00,mfh,87.71
2022-03-06T10:59:00,mfh,87.69
2022-03-06T11:00:00,mfh,87.64
2022-03-06T11:01:00,mfh,87.58
2022-03-06T11:02:00,mfh,87.63
2022-03-06T11:03:00,mfh,87.74
2022-03-06T11:04:00,mfh,87.82
2022-03-06T11:05:00,mfh,87.96
2022-03-06T11:06:00,mfh,87.87
2022-03-06T11:07:00,mfh,87.77
2022-03-06T11:08:00,mfh,87.88
2022-03-06T11:09:00,mfh,87.60
2022-03-06T11:10:00,mfh,87.62
2022-03-06T11:11:00,mfh,87.66
2022-03-06T11:12:00,mfh,87.95
2022-03-06T11:13:00,mfh,87.43
2022-03-06T11:14:00,mfh,87.51
2022-03-06T11:15:00,mfh,87.80
2022-03-06T11:16:00,mfh,87.51
2022-03-06T11:17:00,mfh,87.34
2022-03-06T11:18:00,mfh,87.57
2022-03-06T11:19:00,mfh,87.39
2022-03-06T11:20:00,mfh,87.42
2022-03-06T11:21:00,mfh,87.72
2022-03-06T11:22:00,mfh,87.49
2022-03-06T11:23:00,mfh,87.67
2022-03-06T11:24:00,mfh,87.39
2022-03-06T11:25:00,mfh,87.23
2022-03-06T11:26:00,mfh,87.17
2022-03-06T11:27:00,mfh,87.21
2022-03-06T11:28:00,mfh,87.35
2022-03-06T11:29:00,mfh,87.84
2022-03-06T11:30:00,mfh,87.84
2022-03-06T11:31:00,mfh,87.81
2022-03-06T11:32:00,mfh,87.84
2022-03-06T11:33:00,mfh,87.98
2022-03-06T11:34:00,mfh,87.62
2022-03-06T11:35:00,mfh,87.75
2022-03-06T11:36:00,mfh,87.91
2022-03-06T11:37:00,mfh,87.88
2022-03-06T11:38:00,mfh,87.92
2022-03-06T11:39:00,mfh,87.99
2022-03-06T11:40:00,mfh,88.06
2022-03-06T11:41:00,mfh,87.94
2022-03-06T11:42:00,mfh,87.76
2022-03-06T11:43:00,mfh,87.72
2022-03-06T11:44:00,mfh,87.64
2022-03-06T11:45:00,mfh,87.71
2022-03-06T11:46:00,mfh,87.88
2022-03-06T11:47:00,mfh,87.97
2022-03-06T11:48:00,mfh,87.88
2022-03-06T11:49:00,mfh,87.55
2022-03-06T11:50:00,mfh,87.36
2022-03-06T11:51:00,mfh,87.50
2022-03-06T11:52:00,mfh,87.37
2022-03-06T11:53:00,mfh,87.45
2022-03-06T11:54:00,mfh,87.42
2022-03-06T11:55:00,mfh,87.42
2022-03-06T11:56:00,mfh,87.44
2022-03-06T11:57:00,mfh,87.53
2022-03-06T11:58:00,mfh,87.43
2022-03-06T11:59:00,mfh,87.30
2022-03-06T12:00:00,mfh,87.58
2022-03-06T12:01:00,mfh,87.59
2022-03-06T12:02:00,mfh,87.62
2022-03-06T12:03:00,mfh,87.84
2022-03-06T12:04:00,mfh,87.86
2022-03-06T12:05:00,mfh,87.83
2022-03-06T12:06:00,mfh,88.08
2022-03-06T12:07:00,mfh,87.71
2022-03-06T12:08:00,mfh,87.09
2022-03-06T12:09:00,mfh,87.05
2022-03-06T12:10:00,mfh,87.47
2022-03-06T12:11:00,mfh,87.28
2022-03-06T12:12:00,mfh,87.20
2022-03-06T12:13:00,mfh,87.11
2022-03-06T12:14:00,mfh,87.08
2022-03-06T12:15:00,mfh,86.83
2022-03-06T12:16:00,mfh,86.81
2022-03-06T12:17:00,mfh,86.96
2022-03-06T12:18:00,mfh,87.09
2022-03-06T12:19:00,mfh,87.34
2022-03-06T12:20:00,mfh,87.46
2022-03-06T12:21:00,mfh,87.77
2022-03-06T12:22:00,mfh,87.47
2022-03-06T12:23:00,mfh,87.54
2022-03-06T12:24:00,mfh,87.48
2022-03-06T12:25:00,mfh,87.54
2022-03-06T12:26:00,mfh,87.54
2022-03-06T12:27:00,mfh,87.59
2022-03-06T12:28:00,mfh,87.75
2022-03-06T12:29:00,mfh,87.96
2022-03-06T12:30:00,mfh,87.82
2022-03-06T12:31:00,mfh,87.81
2022-03-06T12:32:00,mfh,87.83
2022-03-06T12:33:00,mfh,87.48
2022-03-06T12:34:00,mfh,88.18
2022-03-06T12:35:00,mfh,88.13
2022-03-06T12:36:00,mfh,88.05
2022-03-06T12:37:00,mfh,88.09
2022-03-06T12:38:00,mfh,88.17
2022-03-06T12:39:00,mfh,88.03
2022-03-06T12:40:00,mfh,88.34
2022-03-06T12:41:00,mfh,87.87
2022-03-06T12:42:00,mfh,87.88
2022-03-06T12:43:00,mfh,87.80
2022-03-06T12:44:00,mfh,87.88
2022-03-06T12:45:00,mfh,87.99
2022-03-06T12:46:00,mfh,88.00
2022-03-06T12:47:00,mfh,87.76
2022-03-06T12:48:00,mfh,87.71
2022-03-06T12:49:00,mfh,87.64
2022-03-06T12:50:00,mfh,87.43
2022-03-06T12:51:00,mfh,87.38
2022-03-06T12:52:00,mfh,87.56
2022-03-06T12:53:00,mfh,87.28
2022-03-06T12:54:00,mfh,87.41
2022-03-06T12:55:00,mfh,87.34
2022-03-06T12:56:00,mfh,87.47
2022-03-06T12:57:00,mfh,87.37
2022-03-06T12:58:00,mfh,87.53
2022-03-06T12:59:00,mfh,87.13
2022-03-06T13:00:00,mfh,87.02
2022-03-06T13:01:00,mfh,87.03
2022-03-06T13:02:00,mfh,87.12
2022-03-06T13:03:00,mfh,87.08
2022-03-06T13:04:00,mfh,87.15
2022-03-06T13:05:00,mfh,87.27
2022-03-06T13:06:00,mfh,87.33
2022-03-06T13:07:00,mfh,87.17
2022-03-06T13:08:00,mfh,87.13
2022-03-06T13:09:00,mfh,86.84
2022-03-06T13:10:00,mfh,86.82
2022-03-06T13:11:00,mfh,87.80
2022-03-06T13:12:00,mfh,87.85
2022-03-06T13:13:00,mfh,87.48
2022-03-06T13:14:00,mfh,87.50
2022-03-06T13:15:00,mfh,87.41
2022-03-06T13:16:00,mfh,87.58
2022-03-06T13:17:00,mfh,87.68
2022-03-06T13:18:00,mfh,87.67